Regional Weather Roundup
Issued by NWS

Home | Current Version | Previous Version | Graphics & Text | Print | Product List | Glossary On
Versions: 1 2 3 4 5 6 7 8 9 10 11 12 13 14 15 16 17 18 19 20 21 22 23 24 25 26 27 28 29 30 31 32 33 34 35 36 37 38 39 40 41 42 43 44 45 46 47 48 49 50
000
ASUS43 KOAX 021202
RWRNE

WEATHER ROUNDUP FOR NEBRASKA
NATIONAL WEATHER SERVICE OMAHA NE
700 AM CDT TUE SEP 02 2014

NOTES: SATELLITE DATA IS BEING USED TO AUGMENT CLOUD COVER ABOVE
       12000 FEET.
       "FAIR" INDICATES FEW OR NO CLOUDS BELOW 12,000 FEET WITH NO
       SIGNIFICANT WEATHER AND/OR OBSTRUCTIONS TO VISIBILITY.

  * THESE STATIONS DO NOT REPORT WEATHER SUCH AS RAIN...SNOW OR FOG.

NEZ001>004-019>022-054>056-021300-
NEBRASKA PANHANDLE

CITY           SKY/WX    TMP DP  RH WIND       PRES   REMARKS
SCOTTSBLUFF    CLEAR     43  42  97 E3        30.07S
6HR MIN TEMP:  42; 6HR MAX TEMP:  50;

ALLIANCE       CLEAR     39  38  96 W6        30.06S WCI  35
6HR MIN TEMP:  38; 6HR MAX TEMP:  46;

CHADRON        CLEAR     44  42  93 SW5       30.02S
6HR MIN TEMP:  44; 6HR MAX TEMP:  47;

KIMBALL        CLEAR     44  42  93 W6        30.09F
SIDNEY         CLEAR     44  41  89 W8        30.09S
6HR MIN TEMP:  42; 6HR MAX TEMP:  54;

$$

NEZ057>060-069>072-079>082-021300-
SOUTHWEST NEBRASKA

CITY           SKY/WX    TMP DP  RH WIND       PRES   REMARKS
NORTH PLATTE   FOG       46  45  96 CALM      30.03  VSB 1/4
6HR MIN TEMP:  44; 6HR MAX TEMP:  54;

IMPERIAL       CLEAR     52  49  89 N5        30.05R
6HR MIN TEMP:  51; 6HR MAX TEMP:  58;

LEXINGTON      CLEAR     50  49  97 NW7       30.01R
MCCOOK         CLEAR     52  51  97 SW3       30.03R
6HR MIN TEMP:  52; 6HR MAX TEMP:  60;

OGALLALA       CLEAR     44  43  98 CALM      30.04S
$$

NEZ005>010-023>029-035>040-094-021300-
NORTH CENTRAL NEBRASKA

CITY           SKY/WX    TMP DP  RH WIND       PRES   REMARKS
VALENTINE      CLEAR     46  45  96 SW5       30.00S
6HR MIN TEMP:  46; 6HR MAX TEMP:  52;

AINSWORTH      CLEAR     49  47  91 CALM      30.00R
BROKEN BOW     CLEAR     54  50  86 CALM      30.00S
6HR MIN TEMP:  51; 6HR MAX TEMP:  55;

O`NEILL        CLEAR     52  51  97 W6        29.97S
ORD            CLEAR     49  48  97 NW3       29.98R
6HR MIN TEMP:  48; 6HR MAX TEMP:  55;

$$

NEZ041-046>049-061>064-073>077-083>087-021300-
SOUTH CENTRAL NEBRASKA

CITY           SKY/WX    TMP DP  RH WIND       PRES   REMARKS
GRAND ISLAND   CLEAR     53  50  89 W5        30.00R
6HR MIN TEMP:  53; 6HR MAX TEMP:  58;

AURORA         CLEAR     52  52 100 W6        29.99R
HASTINGS       CLEAR     54  50  86 CALM      29.99S
6HR MIN TEMP:  53; 6HR MAX TEMP:  60;

HEBRON         CLEAR     54  51  91 CALM      29.99R
HOLDREGE       CLEAR     53  51  95 CALM      30.01R
KEARNEY *      CLEAR     52  50  93 NW7       30.00R
YORK           CLEAR     52 N/A N/A SW3       30.00R
$$

NEZ011>018-030>034-042>045-021300-
NORTHEAST NEBRASKA

CITY           SKY/WX    TMP DP  RH WIND       PRES   REMARKS
NORFOLK        CLEAR     54  52  93 W5        29.97R
6HR MIN TEMP:  54; 6HR MAX TEMP:  59;

ALBION         CLEAR     51  49  93 NW6       29.98R
BLAIR          FOG       56  54  94 S3        29.96R VSB 1/4
FREMONT        CLEAR     57  55  95 CALM      29.97R
TEKAMAH        CLEAR     55  54  96 E3        29.95R
6HR MIN TEMP:  55; 6HR MAX TEMP:  62;

WAYNE          CLEAR     52  51  97 S3        29.97R
$$

NEZ050>053-065>068-078-088>093-021300-
SOUTHEAST NEBRASKA

CITY           SKY/WX    TMP DP  RH WIND       PRES   REMARKS
LINCOLN        CLEAR     55  53  93 CALM      29.99R
6HR MIN TEMP:  55; 6HR MAX TEMP:  63;

OMAHA EPPLEY   PTCLDY    57  54  89 NW7       29.96R
6HR MIN TEMP:  57; 6HR MAX TEMP:  65;

BEATRICE       CLEAR     55  55  97 S3        29.98R
FALLS CITY     CLEAR     60  59  96 NW7       29.95R
6HR MIN TEMP:  59; 6HR MAX TEMP:  64;

NEBRASKA CITY  CLEAR     58  58 100 NW7       29.96S
PLATTSMOUTH    CLEAR     58  56  93 W3        29.96R
$$

NEZ044-045-051>053-067-021300-
OMAHA AREA

CITY           SKY/WX    TMP DP  RH WIND       PRES   REMARKS
OMAHA EPPLEY   PTCLDY    57  54  89 NW7       29.96R
6HR MIN TEMP:  57; 6HR MAX TEMP:  65;

BLAIR          FOG       56  54  94 S3        29.96R VSB 1/4
FREMONT        CLEAR     57  55  95 CALM      29.97R
MILLARD        CLEAR     59  56  92 NW3       29.96R
OFFUTT AFB     CLEAR     57  57 100 NW2       29.96R
PLATTSMOUTH    CLEAR     58  56  93 W3        29.96R
WAHOO          FAIR      54  51  92 S5        29.97R
$$


USA.gov is the U.S. government's official web portal to all federal, state and local government web resources and services.